CZ-6A DEB, 54409

Orbit data source: Space-Track

CZ-6A DEB, 54409 is space debris in SSO originally from a launch on Fri, 11 Nov 2022 UTC launched from the Taiyaun Space Center, China (TSC). Debris objects in space refer to the collection of defunct objects orbiting the Earth. Examples of debris include non-operational satellites, rocket bodies, and fragments generated from explosions, collisions, or faulty payload assembly.

Loading next visibility...
Identifier
54409, 2022-151EH
Orbit
SSO
Country
Flag of CNCN / PRC
Related business
Manufacturer
SAST
Mission
Spacecraft
Bus & Motor
Unknown
Mass
Unknown
Launch date (UTC)
2022-11-11 (3 years ago)
Launch vehicle
Unknown
Launch site
Taiyaun Space Center, China (TSC)
Object type
Payload
Rocket body
Debris
Shape & HBR
Unknown shape, 0.1 m
Radar Cross Section
Small (<0.1 m²)

Expand to show TLE details & history
Last TLE update: 13 hours ago

TLE from 13 hours ago
0 CZ-6A DEB
1 54409U 22151EH  25352.99493388  .00003288  00000-0  13784-2 0  9999
2 54409  98.7448 350.5543 0137441 358.9626   1.1246 14.21661130160037
Epoch: 2025-12-18T23:52Z
TLE epoch observation values (Epoch: 2025-12-18T23:52:42.287Z)
Latitude
-0.00007°
Longitude
-95.46433°
Altitude
723.728 km
Speed
7.545 km/s
True Right ascension
23h 22m 13s
True Declination
0° 00' 00"
Sunlit
Object was in daylight at epoch
Visualization orbit readout
Latitude
Unknown
Longitude
Unknown
Altitude
Unknown
Speed
Unknown
Apparent Right ascension
Unknown
Apparent Declination
Unknown
Sunlit
N/A
Visualization observer readout
Local Sidereal Time
11:54:13
Azimuth
Unknown
Elevation
Unknown
Doppler factor
Unknown
Orbital elements
Apogee altitude
915.787 km
Perigee altitude
718.008 km
Semi-major axis
7,195.035 km
Eccentricity
0.01374
Inclination
98.7448°
RAAN
350.5543°
Arg. of periapsis
358.9626°
True anomaly
1.15605°
Mean anomaly
1.1246°
Eccentric anomaly
1.14027°
Mean motion
3.55626 °/min
Orbital period
101.23 mins
BSTAR
0.0013784
Loading maneuver chart data...
Computing Atmospheric mass density...
Loading historical data...
Loading historical data...
Loading historical data...
Loading historical data...
Loading historical data...
Loading historical data...
Loading historical data...

Documentation

Showing up to 5 results
|